Weather History for KCEC - March, 2012

Change the Weather History Date:

Thursday, March 8, 2012

  Actual Average Record
Temperature  
Mean Temperature 46 °F 48 °F  
Max Temperature 55 °F 55 °F 74 °F (1953)
Min Temperature 37 °F 42 °F 28 °F (2002)
Degree Days  
Heating Degree Days 19 17  
Month to date heating degree days 172 136  
Since 1 July heating degree days 3215 3309  
Cooling Degree Days 0 0  
Month to date cooling degree days 0 0  
Year to date cooling degree days 0 0  
Moisture  
Dew Point 40 °F    
Average Humidity 80    
Maximum Humidity 100    
Minimum Humidity 59    
Precipitation  
Precipitation 0.00 in 0.24 in 2.08 in (1966)
Month to date precipitation 0.50 1.88  
Year to date precipitation 15.43 21.15  
Since 1 July precipitation 33.06  
Snow  
Snow 0.00 in - - ()
Month to date snowfall 0.0  
Since 1 July snowfall 0.0  
Snow Depth 0.00 in    
Sea Level Pressure  
Sea Level Pressure 30.29 in    
Wind  
Wind Speed 7 mph (SE)    
Max Wind Speed 15 mph    
Max Gust Speed 18 mph    
Visibility 10 miles    
Events      
T = Trace of Precipitation, MM = Missing Value Source: NWS Daily Summary

Daily Weather History Graph

Daily Weather History Graph

Search for Another Location

Airport or City:

Trip Planner

Search our weather history database for the weather conditions in past years. The results will help you decide how hot, cold, wet, or windy it might be!

Date:

Astronomy

Mar. 08, 2012 Rise Set
Actual Time 6:39 AM PST 6:16 PM PST
Civil Twilight 6:11 AM PST 6:44 PM PST
Nautical Twilight 5:39 AM PST 7:16 PM PST
Astronomical Twilight 5:07 AM PST 7:48 PM PST
Moon 7:12 PM PST (3/8) 6:25 AM PST (3/8)
Length of Visible Light 12h 32m
Length of Day
11h 36m
Full, 100% of the Moon is Illuminated
Mar 8
Full
Mar 14
Last Quarter
Mar 22
New
Mar 30
First Quarter
Apr 6
Full

Hourly Weather History & Observations

Time (PST) Temp. Windchill Dew Point Humidity Pressure Visibility Wind Dir Wind Speed Gust Speed Precip Events Conditions
12:56 AM 39.9 °F 36.7 °F 35.1 °F 83% 30.18 in 10.0 mi South 4.6 mph - N/A   Clear
1:56 AM 44.1 °F 40.1 °F 39.9 °F 85% 30.19 in 10.0 mi SE 6.9 mph - N/A   Clear
2:56 AM 42.1 °F 37.7 °F 37.0 °F 82% 30.20 in 10.0 mi SSE 6.9 mph - N/A   Clear
3:56 AM 42.1 °F 39.2 °F 37.0 °F 82% 30.20 in 10.0 mi ESE 4.6 mph - N/A   Clear
4:56 AM 39.9 °F 37.8 °F 36.0 °F 86% 30.23 in 10.0 mi ESE 3.5 mph - N/A   Clear
5:56 AM 44.1 °F 39.0 °F 33.1 °F 65% 30.22 in 10.0 mi East 9.2 mph - N/A   Clear
6:56 AM 43.0 °F 38.8 °F 32.0 °F 65% 30.24 in 10.0 mi East 6.9 mph - N/A   Clear
7:56 AM 46.9 °F - 35.1 °F 63% 30.25 in 10.0 mi SE 8.1 mph - N/A   Clear
8:56 AM 51.1 °F - 39.0 °F 63% 30.27 in 10.0 mi SE 10.4 mph - N/A   Clear
9:56 AM 50.0 °F - 39.9 °F 68% 30.30 in 10.0 mi SSE 10.4 mph - N/A   Clear
10:56 AM 52.0 °F - 39.9 °F 63% 30.31 in 10.0 mi SSE 12.7 mph - N/A   Clear
11:56 AM 54.0 °F - 39.0 °F 57% 30.33 in 10.0 mi South 12.7 mph - N/A   Clear
12:56 PM 54.0 °F - 41.0 °F 62% 30.32 in 10.0 mi SSE 11.5 mph - N/A   Clear
1:56 PM 54.0 °F - 44.1 °F 69% 30.31 in 10.0 mi South 12.7 mph - N/A   Clear
2:56 PM 52.0 °F - 45.0 °F 77% 30.32 in 10.0 mi South 11.5 mph - N/A   Clear
3:56 PM 52.0 °F - 45.0 °F 77% 30.31 in 10.0 mi SSE 11.5 mph - N/A   Clear
4:56 PM 50.0 °F - 46.0 °F 86% 30.31 in 10.0 mi South 6.9 mph - N/A   Clear
5:56 PM 46.9 °F - 45.0 °F 93% 30.32 in 10.0 mi Calm Calm - N/A   Clear
6:56 PM 46.0 °F - 44.1 °F 93% 30.32 in 10.0 mi Calm Calm - N/A   Clear
7:56 PM 44.1 °F - 42.1 °F 93% 30.35 in 7.0 mi Calm Calm - N/A   Clear
8:56 PM 41.0 °F 39.0 °F 39.9 °F 96% 30.35 in 8.0 mi East 3.5 mph - N/A   Clear
9:56 PM 39.9 °F - 39.0 °F 97% 30.36 in 9.0 mi Calm Calm - N/A   Clear
10:25 PM 39.2 °F - 39.2 °F 100% 30.36 in 5.0 mi Calm Calm - N/A   Mostly Cloudy
10:37 PM 42.8 °F - 39.2 °F 87% 30.36 in 8.0 mi Calm Calm - N/A   Mostly Cloudy
10:56 PM 44.1 °F - 42.1 °F 93% 30.37 in 9.0 mi Calm Calm - N/A   Overcast
11:56 PM 45.0 °F 42.6 °F 44.1 °F 97% 30.38 in 10.0 mi SSE 4.6 mph - N/A   Overcast